Location: Brunembert
(50.7122°N, 1.8935°E)
Time: 10:35:51
(UTC+00:00)

Landsat 7 - Pass Details

Date: 22 April 2021
Orbit: 701 x 703 km, 98.0° (Epoch: 16 May)

Event Time Altitude Azimuth Distance (km) Brightness Sun altitude
Exits shadow 19:55:11 10° 140° (SE) 2,195 5.8 -8.7°
Reaches altitude 10° 19:55:15 10° 140° (SE) 2,168 5.7 -8.7°
Maximum altitude 19:59:46 46° 68° (ENE) 952 4.3 -9.3°
Drops below altitude 10° 20:04:19 10° 356° (N) 2,182 6.9 -9.9°
Sets 20:06:39 0° 351° (N) 3,105 7.9 -10.3°
